Location: Waltman Observatory
(32.5145°N, 90.4450°W)
Time: 08:35:33
(UTC-05:00)

Amateur Radio Satellites - All Passes

Search period start: 18 April 2014 08:05
Search period end: 19 April 2014 08:05
Location: Waltman Observatory, 32.5145°N, 90.4450°W

Satellite Date Start Highest point End Downlink Frequencies (MHz)
Time Altitude Azimuth
JAS-2 18 Apr 08:25:57 08:31:22 71° 285° (WNW) 08:37:23 435.800 - 435.900 CW/SSB, 435.910 FM
Hamsat 18 Apr 08:29:36 08:31:36 13° 292° (WNW) 08:33:37 145.90 MHz
MaSat-1 18 Apr 08:45:50 08:48:28 23° 250° (WSW) 08:51:29 437.345 MHz
Sapphire 18 Apr 09:15:36 09:16:40 11° 48° (NE) 09:17:43 437.095 MHz 1200 baud AX-25 AFSK
SO-67 18 Apr 09:16:25 09:18:06 13° 290° (WNW) 09:19:47 435.3500 MHz FM
PANSAT 18 Apr 09:38:10 09:41:38 32° 167° (SSE) 09:45:06 not established
HO-68 18 Apr 09:57:42 10:04:46 59° 102° (ESE) 10:11:49 435.675 MHz FM
PCSat 18 Apr 09:57:47 10:02:22 27° 57° (ENE) 10:06:55 145.825 MHz
Oscar 11 18 Apr 09:59:23 10:02:40 21° 96° (E) 10:05:56 145.825 FM, Beacon 2401.500 USB
RS-15 18 Apr 10:09:36 10:16:49 19° 324° (NW) 10:23:58 29.354 - 29.394 USB, Beacon 29.352 USB
KITSAT 1 18 Apr 10:43:58 10:46:40 12° 38° (NE) 10:49:22 435.175 FM
Sapphire 18 Apr 10:55:25 11:00:51 85° 65° (ENE) 11:06:15 437.095 MHz 1200 baud AX-25 AFSK
Saudisat 1A 18 Apr 11:17:32 11:21:58 71° 116° (ESE) 11:26:25 436.775 MHz
PANSAT 18 Apr 11:17:53 11:21:35 46° 180° (S) 11:25:18 not established
FUNcube-1 18 Apr 11:20:41 11:24:53 57° 101° (E) 11:29:11 145.950 - 145.970 MHz USB
Oscar 11 18 Apr 11:35:09 11:38:47 26° 289° (WNW) 11:42:24 145.825 FM, Beacon 2401.500 USB
PCSat 18 Apr 11:40:56 11:45:44 33° 252° (WSW) 11:50:31 145.825 MHz
HO-68 18 Apr 11:46:36 11:51:54 23° 297° (WNW) 11:57:13 435.675 MHz FM
KITSAT 1 18 Apr 12:35:57 12:43:55 58° 60° (ENE) 12:51:48 435.175 FM
PANSAT 18 Apr 12:58:05 13:01:33 32° 193° (SSW) 13:05:00 not established
Saudisat 1A 18 Apr 13:00:35 13:02:01 11° 312° (NW) 13:03:27 436.775 MHz
AO-27 18 Apr 13:25:18 13:29:03 21° 67° (ENE) 13:32:48 436.795 MHz FM
ITAMSAT 1 18 Apr 13:35:48 13:40:00 26° 69° (ENE) 13:44:12 435.822 SSB
Oscar 19 18 Apr 13:42:19 13:47:21 59° 74° (ENE) 13:52:24 437.125 CW, 437.150 USB
Oscar 16 18 Apr 13:50:17 13:55:24 78° 76° (ENE) 14:00:33 437.025 USB, Beacon 2401.1428
AO-Echo 18 Apr 13:54:12 13:58:47 31° 71° (ENE) 14:03:18 ?
Uribyol 2 18 Apr 14:23:22 14:28:32 84° 76° (ENE) 14:33:43 436.500 FM
KITSAT 1 18 Apr 14:32:27 14:38:42 25° 256° (WSW) 14:44:56 435.175 FM
PANSAT 18 Apr 14:39:38 14:41:16 12° 204° (SSW) 14:42:54 not established
RS-15 18 Apr 14:47:02 14:55:06 23° 40° (NE) 15:03:14 29.354 - 29.394 USB, Beacon 29.352 USB
Gurwin Techsat 1B 18 Apr 14:49:18 14:54:13 40° 72° (ENE) 14:59:09 435.225 FM
AO-7 18 Apr 15:00:02 15:04:53 17° 56° (NE) 15:09:44 29.400 - 29.500 MHz
AO-27 18 Apr 15:03:25 15:08:15 39° 261° (W) 15:13:05 436.795 MHz FM
OPAL 18 Apr 15:03:42 15:08:11 29° 99° (E) 15:12:38 ?
ITAMSAT 1 18 Apr 15:14:47 15:19:19 31° 262° (W) 15:23:52 435.822 SSB
SO-50 18 Apr 15:20:43 15:24:51 38° 113° (ESE) 15:29:02 436.795 FM
Oscar 19 18 Apr 15:24:57 15:27:00 12° 268° (W) 15:29:03 437.125 CW, 437.150 USB
ISS 18 Apr 15:32:57 15:36:16 74° 316° (NW) 15:39:37 145.800 FM
AO-Echo 18 Apr 15:33:08 15:37:28 26° 264° (W) 15:41:45 ?
TMSAT-1 18 Apr 15:37:47 15:43:05 87° 77° (ENE) 15:48:24 436.925 FM
JAS-1B 18 Apr 15:47:31 15:55:51 59° 73° (ENE) 16:02:50 435.800 - 435.900 CW/SSB
Uosat F 18 Apr 15:50:08 15:54:47 39° 72° (ENE) 15:59:27 435.120 FM
Gurwin Techsat 1B 18 Apr 16:30:30 16:34:16 20° 265° (W) 16:38:04 435.225 FM
OPAL 18 Apr 16:42:31 16:46:55 28° 292° (WNW) 16:51:19 ?
AO-7 18 Apr 16:48:16 16:56:34 89° 253° (WSW) 17:04:53 29.400 - 29.500 MHz
RS-15 18 Apr 16:58:05 17:09:07 86° 63° (ENE) 17:20:31 29.354 - 29.394 USB, Beacon 29.352 USB
SO-50 18 Apr 17:02:26 17:05:32 18° 308° (NW) 17:08:40 436.795 FM
Uosat F 18 Apr 17:30:14 17:33:39 18° 265° (W) 17:37:05 435.120 FM
JAS-1B 18 Apr 17:39:59 17:46:25 24° 263° (W) 17:52:10 435.800 - 435.900 CW/SSB
Hamsat 18 Apr 17:42:08 17:44:56 18° 70° (ENE) 17:47:46 145.90 MHz
UOSAT-12 18 Apr 17:49:08 17:53:37 73° 116° (ESE) 17:58:14 437.025 FM, 437.400 FM
JAS-2 18 Apr 18:34:33 18:39:30 28° 71° (ENE) 18:44:04 435.800 - 435.900 CW/SSB, 435.910 FM
AO-7 18 Apr 18:46:30 18:50:09 13° 267° (W) 18:53:49 29.400 - 29.500 MHz
RS-15 18 Apr 19:13:12 19:20:06 19° 259° (WSW) 19:27:12 29.354 - 29.394 USB, Beacon 29.352 USB
Hamsat 18 Apr 19:17:03 19:20:41 28° 263° (W) 19:24:21 145.90 MHz
STRAND 1 18 Apr 19:18:27 19:23:20 45° 100° (E) 19:28:12 ?
UOSAT-12 18 Apr 19:32:40 19:34:17 12° 313° (NW) 19:35:55 437.025 FM, 437.400 FM
SO-67 18 Apr 19:43:54 19:47:23 80° 259° (W) 19:50:53 435.3500 MHz FM
Saudisat 1A 18 Apr 19:49:56 19:52:45 16° 51° (NE) 19:55:32 436.775 MHz
JAS-2 18 Apr 20:19:04 20:24:28 32° 261° (W) 20:29:24 435.800 - 435.900 CW/SSB, 435.910 FM
HO-68 18 Apr 20:22:15 20:28:02 28° 64° (ENE) 20:33:49 435.675 MHz FM
STRAND 1 18 Apr 20:58:54 21:02:07 17° 294° (WNW) 21:05:20 ?
MaSat-1 18 Apr 21:07:23 21:09:45 19° 110° (ESE) 21:11:53 437.345 MHz
Saudisat 1A 18 Apr 21:28:22 21:32:31 42° 246° (WSW) 21:36:37 436.775 MHz
ISS 18 Apr 22:06:12 22:08:27 17° 33° (NNE) 22:10:42 145.800 FM
HO-68 18 Apr 22:08:33 22:15:21 48° 259° (W) 22:22:12 435.675 MHz FM
FUNcube-1 18 Apr 22:13:35 22:17:05 26° 72° (ENE) 22:20:32 145.950 - 145.970 MHz USB
Oscar 11 18 Apr 22:24:58 22:29:12 59° 259° (W) 22:33:28 145.825 FM, Beacon 2401.500 USB
MaSat-1 18 Apr 22:47:24 22:48:04 11° 297° (WNW) 22:48:43 437.345 MHz
ISS 18 Apr 23:42:09 23:45:21 43° 228° (SW) 23:48:32 145.800 FM
FUNcube-1 18 Apr 23:50:22 23:53:26 19° 264° (W) 23:56:29 145.950 - 145.970 MHz USB
Sapphire 18 Apr 23:50:54 23:54:53 21° 106° (ESE) 23:58:52 437.095 MHz 1200 baud AX-25 AFSK
SO-50 18 Apr 23:58:15 00:00:15 13° 48° (NE) 00:02:16 436.795 FM
PCSat 19 Apr 00:34:16 00:39:34 62° 112° (ESE) 00:44:55 145.825 MHz
KITSAT 1 19 Apr 01:11:57 01:12:21 10° 99° (E) 01:12:45 435.175 FM
Oscar 10/S400 19 Apr 01:22:28 01:37:44 25° 137° (SE) 02:01:51 145.825 - 145.975 CW/USB, Beacon 145.810 USB
Sapphire 19 Apr 01:32:53 01:37:58 41° 300° (WNW) 01:43:04 437.095 MHz 1200 baud AX-25 AFSK
SO-50 19 Apr 01:36:36 01:41:15 69° 244° (WSW) 01:45:57 436.795 FM
ITAMSAT 1 19 Apr 01:54:47 01:56:58 13° 93° (E) 01:59:08 435.822 SSB
Oscar 19 19 Apr 01:59:00 02:03:34 31° 97° (E) 02:08:07 437.125 CW, 437.150 USB
Oscar 16 19 Apr 02:06:55 02:11:48 40° 99° (E) 02:16:39 437.025 USB, Beacon 2401.1428
AO-Echo 19 Apr 02:08:10 02:10:03 12° 93° (E) 02:11:56 ?
OPAL 19 Apr 02:14:26 02:18:45 30° 68° (ENE) 02:23:08 ?
PCSat 19 Apr 02:20:08 02:23:24 16° 308° (NW) 02:26:40 145.825 MHz
UOSAT-12 19 Apr 02:23:56 02:27:22 20° 52° (NE) 02:30:47 437.025 FM, 437.400 FM
Uribyol 2 19 Apr 02:40:59 02:45:55 44° 100° (E) 02:50:50 436.500 FM
KITSAT 1 19 Apr 02:58:21 03:06:25 76° 113° (ESE) 03:14:32 435.175 FM
Gurwin Techsat 1B 19 Apr 03:10:41 03:14:54 24° 96° (E) 03:19:05 435.225 FM
AO-27 19 Apr 03:20:44 03:25:55 75° 285° (WNW) 03:31:04 436.795 MHz FM
ITAMSAT 1 19 Apr 03:31:41 03:36:45 59° 286° (WNW) 03:41:49 435.822 SSB
Oscar 19 19 Apr 03:38:31 03:42:43 26° 291° (WNW) 03:46:55 437.125 CW, 437.150 USB
JAS-1B 19 Apr 03:39:59 03:42:53 14° 95° (E) 03:45:52 435.800 - 435.900 CW/SSB
AO-Echo 19 Apr 03:44:30 03:49:06 50° 286° (WNW) 03:53:37 ?
Oscar 16 19 Apr 03:47:08 03:50:48 20° 293° (WNW) 03:54:29 437.025 USB, Beacon 2401.1428
OPAL 19 Apr 03:53:31 03:57:34 25° 262° (W) 04:01:41 ?
TMSAT-1 19 Apr 03:58:29 04:03:38 51° 100° (E) 04:08:46 436.925 FM
UOSAT-12 19 Apr 04:03:16 04:07:40 40° 247° (WSW) 04:12:00 437.025 FM, 437.400 FM
Uosat F 19 Apr 04:03:30 04:06:49 18° 95° (E) 04:10:07 435.120 FM
Uribyol 2 19 Apr 04:21:35 04:25:01 18° 293° (WNW) 04:28:27 436.500 FM
Gurwin Techsat 1B 19 Apr 04:50:07 04:54:51 34° 289° (WNW) 04:59:33 435.225 FM
AO-7 19 Apr 04:55:22 05:03:09 42° 101° (E) 05:10:53 29.400 - 29.500 MHz
KITSAT 1 19 Apr 04:56:30 05:02:34 23° 312° (NW) 05:08:40 435.175 FM
RS-15 19 Apr 05:08:49 05:15:17 17° 101° (E) 05:21:35 29.354 - 29.394 USB, Beacon 29.352 USB
JAS-1B 19 Apr 05:28:20 05:33:50 55° 287° (WNW) 05:39:41 435.800 - 435.900 CW/SSB
TMSAT-1 19 Apr 05:39:54 05:43:05 16° 294° (WNW) 05:46:16 436.925 FM
Uosat F 19 Apr 05:41:03 05:45:42 40° 288° (WNW) 05:50:20 435.120 FM
STRAND 1 19 Apr 06:29:59 06:34:46 41° 72° (ENE) 06:39:33 ?
AO-7 19 Apr 06:48:19 06:55:42 37° 296° (WNW) 07:03:06 29.400 - 29.500 MHz
Hamsat 19 Apr 07:06:44 07:11:05 69° 101° (E) 07:15:25 145.90 MHz
MaSat-1 19 Apr 07:12:22 07:14:59 23° 66° (ENE) 07:17:58 437.345 MHz
RS-15 19 Apr 07:14:40 07:26:10 89° 116° (ESE) 07:37:14 29.354 - 29.394 USB, Beacon 29.352 USB
JAS-2 19 Apr 07:31:18 07:36:22 36° 99° (E) 07:41:55 435.800 - 435.900 CW/SSB, 435.910 FM
PANSAT 19 Apr 07:35:31 07:37:27 13° 157° (SSE) 07:39:23 not established
